Location: Grange Verzio
(44.5000°N, 6.9833°E)
Time: 17:38:51
(UTC+00:00)

Cosmos 2219 Rocket - Pass Details

Date: 25 September 2023
Orbit: 826 x 848 km, 71.0° (Epoch: 08 December)

Event Time Altitude Azimuth Distance (km) Brightness Sun altitude
Rises 18:26:46 0° 194° (SSW) 3,348 5.4 -11.9°
Reaches altitude 10° 18:29:12 10° 191° (S) 2,419 4.6 -12.3°
Maximum altitude 18:34:41 64° 111° (ESE) 911 2.1 -13.2°
Drops below altitude 10° 18:40:12 10° 31° (NNE) 2,442 4.4 -14.2°
Sets 18:42:40 0° 29° (NNE) 3,383 5.2 -14.6°
